Weather in Fedorovka

Russia / Chelyabinsk Oblast     55°18′38″N   61°35′37″E
temp.,
°C
wind,
m/s
gust,
m/s
humid.,
%
clouds,
%
prec.,
mm/h
press.,
hPa
HPBL,
m
17 april, sat
sat1723:00+6nne3759100 0.0 1026327
02:00+5ene376399 0.0 1026257
05:00+4ese356399 0.0 1027187
08:00+5se2463100 0.0 1026198
11:00+6sse2358100 0.0 1026320
14:00+9s234883 0.0 1024847
17:00+11w235251 0.0 10221248
20:00+10se105850 0.0 102111
18 april, sun
sun1823:00+8w22685 0.0 102026
02:00+5nnw37614 0.0 1019162
05:00+4nw38665 0.0 1019218
08:00+6wnw510610 0.0 1018558
11:00+9nnw7104811 0.0 10181497
14:00+5nne7960100 0.1 10221198
17:00+5ne7936100 0.1 10251853
20:00+2ne69385 0.0 10271376
19 april, mon
mon1923:000ne59400 0.0 1030912
02:00−2ene47430 0.0 1032986
05:00−3ene36430 0.0 1034939
08:00−2ne46370 0.0 10351313
11:000ne56305 0.0 10351606
14:00+1ne56275 0.0 10351818
17:00+2ne56275 0.0 10351862
20:000ene35355 0.0 1035958
20 april, tue
tue2023:00−1ese12380 0.0 1036190
02:00−1wnw11390 0.0 103655
05:00−1nw23410 0.0 1037138
08:000nw24350 0.0 1037439
11:00+3wnw33285 0.0 10361227
14:00+6wnw34255 0.0 10351517
17:00+8wnw46255 0.0 10331739
20:00+7wnw48350 0.0 1032440
21 april, wed
wed2123:00+4wnw410460 0.0 1033304
02:00+3nw38540 0.0 1033223
05:00+1nw37580 0.0 1034180
08:00+4nw36510 0.0 1035299
11:00+8nnw45380 0.0 10341011
14:00+11n33330 0.0 10341261
17:00+12n22320 0.0 10331354
20:00+10ene22410 0.0 103441